| time (UTC) | temp C | wind direction | speed KPH | gust KPH | rain 1hr cm | rain 24hr cm | rain mn cm | humidity % | barometer mb |
| 20260906140015 | -17 | 64 | 1.6 | 1.6 | 0.00 | 0.00 | 0.00 | 82 | 1002.6 |
| 20260906135515 | -17 | 32 | 3.2 | 3.2 | 0.00 | 0.00 | 0.00 | 82 | 1002.5 |
| 20260906135014 | -17 | 83 | 0.0 | 1.6 | 0.00 | 0.00 | 0.00 | 82 | 1002.3 |
| 20260906134515 | -17 | 62 | 0.0 | 0.0 | 0.00 | 0.00 | 0.00 | 84 | 1002.1 |
| 20260906134014 | -17 | 82 | 0.0 | 0.0 | 0.00 | 0.00 | 0.00 | 84 | 1002.1 |
| 20260906133514 | -17 | 84 | 1.6 | 1.6 | 0.00 | 0.00 | 0.00 | 86 | 1002.0 |
| 20260906133014 | -17 | 148 | 0.0 | 0.0 | 0.00 | 0.00 | 0.00 | 86 | 1002.0 |
| 20260906132513 | -17 | 209 | 0.0 | 0.0 | 0.00 | 0.00 | 0.00 | 86 | 1002.3 |
| 20260906132013 | -17 | 212 | 0.0 | 0.0 | 0.00 | 0.00 | 0.00 | 86 | 1002.1 |
| 20260906131513 | -17 | 34 | 3.2 | 3.2 | 0.00 | 0.00 | 0.00 | 86 | 1002.1 |
| 20260906131013 | -17 | 142 | 0.0 | 0.0 | 0.00 | 0.00 | 0.00 | 88 | 1001.9 |
| 20260906130512 | -17 | 59 | 1.6 | 1.6 | 0.00 | 0.00 | 0.00 | 88 | 1001.7 |
| 20260906130012 | -17 | 30 | 0.0 | 0.0 | 0.00 | 0.00 | 0.00 | 90 | 1002.0 |
| 20260906125512 | -17 | 122 | 0.0 | 0.0 | 0.00 | 0.00 | 0.00 | 91 | 1001.9 |
| 20260906125012 | -17 | 43 | 0.0 | 1.6 | 0.00 | 0.00 | 0.00 | 92 | 1002.0 |
| 20260906124511 | -17 | 84 | 0.0 | 0.0 | 0.00 | 0.00 | 0.00 | 93 | 1002.1 |
| 20260906124011 | -17 | 50 | 1.6 | 3.2 | 0.00 | 0.00 | 0.00 | 92 | 1001.9 |
| 20260906123511 | -17 | 98 | 0.0 | 0.0 | 0.00 | 0.00 | 0.00 | 93 | 1002.1 |
| 20260906123011 | -17 | 98 | 0.0 | 0.0 | 0.00 | 0.00 | 0.00 | 93 | 1002.0 |
| 20260906122510 | -17 | 58 | 3.2 | 3.2 | 0.00 | 0.00 | 0.00 | 93 | 1002.0 |
| 20260906122010 | -17 | 165 | 0.0 | 0.0 | 0.00 | 0.00 | 0.00 | 94 | 1001.8 |
| 20260906121510 | -17 | 76 | 0.0 | 0.0 | 0.00 | 0.00 | 0.00 | 94 | 1002.0 |
| 20260906121010 | -17 | 118 | 0.0 | 1.6 | 0.00 | 0.00 | 0.00 | 94 | 1001.8 |
| 20260906120509 | -17 | 97 | 0.0 | 0.0 | 0.00 | 0.00 | 0.00 | 95 | 1001.9 |
| 20260906120009 | -17 | 197 | 0.0 | 0.0 | 0.00 | 0.00 | 0.00 | 95 | 1001.9 |
| 20260906115509 | -17 | 218 | 0.0 | 0.0 | 0.00 | 0.00 | 0.00 | 95 | 1002.0 |
| 20260906115009 | -17 | 327 | 0.0 | 0.0 | 0.00 | 0.00 | 0.00 | 95 | 1002.1 |
| 20260906114508 | -17 | 202 | 0.0 | 0.0 | 0.00 | 0.00 | 0.00 | 96 | 1001.8 |
| 20260906114008 | -17 | 201 | 0.0 | 0.0 | 0.00 | 0.00 | 0.00 | 96 | 1001.7 |
| 20260906113508 | -17 | 199 | 0.0 | 0.0 | 0.00 | 0.00 | 0.00 | 96 | 1001.6 |
| 20260906113008 | -17 | 111 | 0.0 | 0.0 | 0.00 | 0.00 | 0.00 | 96 | 1001.6 |
| 20260906112508 | -17 | 111 | 0.0 | 0.0 | 0.00 | 0.00 | 0.00 | 96 | 1001.7 |
| 20260906112007 | -17 | 210 | 0.0 | 0.0 | 0.00 | 0.00 | 0.00 | 96 | 1001.7 |
| 20260906111507 | -17 | 146 | 0.0 | 0.0 | 0.00 | 0.00 | 0.00 | 96 | 1001.7 |
| 20260906111007 | -17 | 148 | 0.0 | 0.0 | 0.00 | 0.00 | 0.00 | 96 | 1001.3 |
| 20260906110507 | -17 | 280 | 0.0 | 0.0 | 0.00 | 0.00 | 0.00 | 96 | 1001.4 |
| 20260906110006 | -17 | 118 | 0.0 | 1.6 | 0.00 | 0.00 | 0.00 | 96 | 1001.5 |
| 20260906105506 | -17 | 222 | 0.0 | 0.0 | 0.00 | 0.00 | 0.00 | 96 | 1001.2 |
| 20260906105006 | -17 | 107 | 0.0 | 0.0 | 0.00 | 0.00 | 0.00 | 96 | 1001.3 |
| 20260906104506 | -17 | 107 | 0.0 | 0.0 | 0.00 | 0.00 | 0.00 | 96 | 1001.3 |
| 20260906104005 | -17 | 107 | 0.0 | 0.0 | 0.00 | 0.00 | 0.00 | 96 | 1001.3 |
| 20260906103505 | -17 | 107 | 0.0 | 0.0 | 0.00 | 0.00 | 0.00 | 96 | 1001.1 |
| 20260906103005 | -17 | 107 | 0.0 | 0.0 | 0.00 | 0.00 | 0.00 | 96 | 1001.0 |
| 20260906102505 | -17 | 107 | 0.0 | 0.0 | 0.00 | 0.00 | 0.00 | 96 | 1000.9 |
| 20260906102005 | -17 | 34 | 0.0 | 1.6 | 0.00 | 0.00 | 0.00 | 96 | 1001.0 |
| 20260906101504 | -17 | 117 | 0.0 | 0.0 | 0.00 | 0.00 | 0.00 | 96 | 1001.0 |
| 20260906101004 | -17 | 70 | 1.6 | 1.6 | 0.00 | 0.00 | 0.00 | 97 | 1001.0 |
| 20260906100504 | -17 | 93 | 0.0 | 0.0 | 0.00 | 0.00 | 0.00 | 97 | 1000.8 |
| 20260906100004 | -17 | 96 | 0.0 | 0.0 | 0.00 | 0.00 | 0.00 | 97 | 1000.7 |
| 20260906095503 | -17 | 96 | 0.0 | 0.0 | 0.00 | 0.00 | 0.00 | 97 | 1000.6 |
| 20260906095003 | -17 | 96 | 0.0 | 1.6 | 0.00 | 0.00 | 0.00 | 97 | 1000.5 |
| 20260906094503 | -17 | 100 | 0.0 | 0.0 | 0.00 | 0.00 | 0.00 | 97 | 1000.6 |
| 20260906094002 | -17 | 101 | 0.0 | 0.0 | 0.00 | 0.00 | 0.00 | 97 | 1000.3 |
| 20260906093502 | -17 | 100 | 0.0 | 0.0 | 0.00 | 0.00 | 0.00 | 97 | 1000.4 |
| 20260906093002 | -17 | 111 | 0.0 | 0.0 | 0.00 | 0.00 | 0.00 | 97 | 1000.2 |
| 20260906092502 | -17 | 111 | 0.0 | 0.0 | 0.00 | 0.00 | 0.00 | 98 | 1000.3 |
| 20260906092001 | -17 | 168 | 0.0 | 0.0 | 0.00 | 0.00 | 0.00 | 98 | 1000.2 |
| 20260906091501 | -17 | 164 | 0.0 | 0.0 | 0.00 | 0.00 | 0.00 | 98 | 1000.0 |
| 20260906090446 | -17 | 94 | 0.0 | 0.0 | 0.00 | 0.00 | 0.00 | 98 | 1000.0 |
| 20260906085946 | -17 | 86 | 0.0 | 0.0 | 0.00 | 0.00 | 0.00 | 98 | 1000.0 |
| 20260906085445 | -17 | 85 | 0.0 | 0.0 | 0.00 | 0.00 | 0.00 | 98 | 999.8 |
| 20260906084945 | -17 | 92 | 0.0 | 0.0 | 0.00 | 0.00 | 0.00 | 99 | 999.8 |
| 20260906084445 | -17 | 97 | 0.0 | 0.0 | 0.00 | 0.00 | 0.00 | 99 | 999.7 |
| 20260906083945 | -17 | 98 | 0.0 | 0.0 | 0.00 | 0.00 | 0.00 | 99 | 999.9 |
| 20260906083444 | -17 | 104 | 0.0 | 0.0 | 0.00 | 0.00 | 0.00 | 99 | 999.7 |
| 20260906082944 | -17 | 104 | 0.0 | 0.0 | 0.00 | 0.00 | 0.00 | 99 | 999.8 |
| 20260906082444 | -17 | 104 | 0.0 | 0.0 | 0.00 | 0.00 | 0.00 | 99 | 999.9 |
| 20260906081944 | -17 | 104 | 0.0 | 0.0 | 0.00 | 0.00 | 0.00 | 99 | 999.8 |
| 20260906081444 | -17 | 104 | 0.0 | 0.0 | 0.00 | 0.00 | 0.00 | 99 | 999.9 |
| 20260906080943 | -17 | 104 | 0.0 | 0.0 | 0.00 | 0.00 | 0.00 | 99 | 999.9 |
| 20260906080443 | -17 | 104 | 0.0 | 0.0 | 0.00 | 0.00 | 0.00 | 99 | 999.7 |
| 20260906075943 | -17 | 104 | 0.0 | 0.0 | 0.00 | 0.00 | 0.00 | 99 | 999.5 |
| 20260906075443 | -17 | 104 | 0.0 | 0.0 | 0.00 | 0.00 | 0.00 | 99 | 999.4 |
| 20260906074943 | -17 | 104 | 0.0 | 0.0 | 0.00 | 0.00 | 0.00 | 99 | 999.6 |
| 20260906074442 | -17 | 104 | 0.0 | 0.0 | 0.00 | 0.00 | 0.00 | 99 | 999.5 |
| 20260906073942 | -17 | 104 | 0.0 | 0.0 | 0.00 | 0.00 | 0.00 | 99 | 999.4 |
| 20260906073442 | -17 | 104 | 0.0 | 0.0 | 0.00 | 0.00 | 0.00 | 99 | 999.4 |
| 20260906072942 | -17 | 104 | 0.0 | 0.0 | 0.00 | 0.00 | 0.00 | 99 | 999.6 |
| 20260906072441 | -17 | 104 | 0.0 | 0.0 | 0.00 | 0.00 | 0.00 | 99 | 999.4 |
| 20260906071941 | -17 | 104 | 0.0 | 0.0 | 0.00 | 0.00 | 0.00 | 99 | 999.1 |
| 20260906071441 | -17 | 104 | 0.0 | 0.0 | 0.00 | 0.00 | 0.00 | 99 | 999.2 |
| 20260906070941 | -17 | 104 | 0.0 | 0.0 | 0.00 | 0.00 | 0.00 | 99 | 999.6 |
| 20260906070441 | -17 | 104 | 0.0 | 0.0 | 0.00 | 0.00 | 0.00 | 99 | 999.3 |
| 20260906065940 | -17 | 104 | 0.0 | 0.0 | 0.00 | 0.00 | 0.00 | 99 | 999.3 |
| 20260906065440 | -17 | 104 | 0.0 | 0.0 | 0.00 | 0.00 | 0.00 | 99 | 999.5 |
| 20260906064940 | -17 | 104 | 0.0 | 0.0 | 0.00 | 0.00 | 0.00 | 99 | 999.7 |
| 20260906064440 | -17 | 104 | 0.0 | 0.0 | 0.00 | 0.00 | 0.00 | 99 | 999.6 |
| 20260906063939 | -17 | 104 | 0.0 | 0.0 | 0.00 | 0.00 | 0.00 | 98 | 999.6 |
| 20260906063439 | -17 | 104 | 0.0 | 0.0 | 0.00 | 0.00 | 0.00 | 99 | 999.5 |
| 20260906062939 | -17 | 104 | 0.0 | 0.0 | 0.00 | 0.00 | 0.00 | 98 | 999.4 |
| 20260906062439 | -17 | 104 | 0.0 | 0.0 | 0.00 | 0.00 | 0.00 | 98 | 999.7 |
| 20260906061938 | -17 | 103 | 0.0 | 0.0 | 0.00 | 0.00 | 0.00 | 98 | 999.6 |
| 20260906061438 | -17 | 104 | 0.0 | 0.0 | 0.00 | 0.00 | 0.00 | 98 | 999.7 |
| 20260906060938 | -17 | 104 | 0.0 | 0.0 | 0.00 | 0.00 | 0.00 | 98 | 999.6 |
| 20260906060438 | -17 | 104 | 0.0 | 0.0 | 0.00 | 0.00 | 0.00 | 98 | 999.7 |
| 20260906055938 | -17 | 103 | 0.0 | 0.0 | 0.00 | 0.00 | 0.00 | 98 | 999.6 |
| 20260906055437 | -17 | 104 | 0.0 | 0.0 | 0.00 | 0.00 | 0.00 | 98 | 999.7 |
| 20260906054937 | -17 | 104 | 0.0 | 0.0 | 0.00 | 0.00 | 0.00 | 98 | 999.7 |
| 20260906054437 | -17 | 104 | 0.0 | 0.0 | 0.00 | 0.00 | 0.00 | 98 | 999.6 |
| 20260906053937 | -17 | 104 | 0.0 | 0.0 | 0.00 | 0.00 | 0.00 | 98 | 1000.1 |
| 20260906053437 | -17 | 104 | 0.0 | 0.0 | 0.00 | 0.00 | 0.00 | 98 | 1000.0 |
| 20260906052936 | -17 | 103 | 0.0 | 0.0 | 0.00 | 0.00 | 0.00 | 98 | 1000.1 |
| 20260906052436 | -17 | 103 | 0.0 | 0.0 | 0.00 | 0.00 | 0.00 | 98 | 1000.2 |
| 20260906051936 | -17 | 103 | 0.0 | 0.0 | 0.00 | 0.00 | 0.00 | 98 | 1000.3 |
| 20260906051435 | -17 | 103 | 0.0 | 0.0 | 0.00 | 0.00 | 0.00 | 98 | 1000.2 |
| 20260906050935 | -17 | 103 | 0.0 | 0.0 | 0.00 | 0.00 | 0.00 | 98 | 1000.4 |
| 20260906050435 | -17 | 103 | 0.0 | 0.0 | 0.00 | 0.00 | 0.00 | 98 | 1000.4 |
| 20260906045934 | -17 | 103 | 0.0 | 0.0 | 0.00 | 0.00 | 0.00 | 98 | 1000.2 |
| 20260906045434 | -17 | 103 | 0.0 | 0.0 | 0.00 | 0.00 | 0.00 | 98 | 1000.3 |
| 20260906044934 | -17 | 103 | 0.0 | 0.0 | 0.00 | 0.00 | 0.00 | 98 | 1000.3 |
| 20260906044434 | -17 | 103 | 0.0 | 0.0 | 0.00 | 0.00 | 0.00 | 98 | 1000.3 |
| 20260906043933 | -17 | 103 | 0.0 | 0.0 | 0.00 | 0.00 | 0.00 | 98 | 1000.6 |
| 20260906043433 | -17 | 103 | 0.0 | 0.0 | 0.00 | 0.00 | 0.00 | 98 | 1000.7 |
| 20260906042933 | -17 | 103 | 0.0 | 0.0 | 0.00 | 0.00 | 0.00 | 98 | 1000.3 |
| 20260906042433 | -17 | 103 | 0.0 | 0.0 | 0.00 | 0.00 | 0.00 | 98 | 1000.6 |
| 20260906041932 | -17 | 103 | 0.0 | 0.0 | 0.00 | 0.00 | 0.00 | 98 | 1000.5 |
| 20260906041432 | -17 | 103 | 0.0 | 0.0 | 0.00 | 0.00 | 0.00 | 98 | 1000.5 |
| 20260906040432 | -17 | 103 | 0.0 | 0.0 | 0.00 | 0.00 | 0.00 | 98 | 1000.6 |
| 20260906035931 | -17 | 103 | 0.0 | 0.0 | 0.00 | 0.30 | 0.30 | 98 | 1000.6 |
| 20260906035431 | -17 | 103 | 0.0 | 0.0 | 0.00 | 0.30 | 0.30 | 98 | 1000.6 |
| 20260906034931 | -17 | 103 | 0.0 | 0.0 | 0.00 | 0.30 | 0.30 | 98 | 1000.5 |
| 20260906034431 | -17 | 103 | 0.0 | 0.0 | 0.00 | 0.30 | 0.30 | 97 | 1000.5 |
| 20260906033931 | -17 | 103 | 0.0 | 0.0 | 0.00 | 0.30 | 0.30 | 97 | 1000.6 |
| 20260906033430 | -17 | 103 | 0.0 | 0.0 | 0.00 | 0.30 | 0.30 | 97 | 1000.5 |
| 20260906032930 | -17 | 103 | 0.0 | 0.0 | 0.00 | 0.30 | 0.30 | 97 | 1000.6 |
| 20260906032430 | -17 | 103 | 0.0 | 0.0 | 0.00 | 0.30 | 0.30 | 97 | 1000.6 |
| 20260906031929 | -17 | 103 | 0.0 | 0.0 | 0.00 | 0.30 | 0.30 | 97 | 1000.7 |
| 20260906031429 | -17 | 103 | 0.0 | 0.0 | 0.00 | 0.30 | 0.30 | 97 | 1000.6 |
| 20260906030929 | -17 | 103 | 0.0 | 0.0 | 0.00 | 0.30 | 0.30 | 97 | 1000.6 |
| 20260906030429 | -17 | 103 | 0.0 | 0.0 | 0.00 | 0.30 | 0.30 | 97 | 1000.5 |
| 20260906025929 | -17 | 103 | 0.0 | 0.0 | 0.00 | 0.30 | 0.30 | 98 | 1000.5 |
| 20260906025428 | -17 | 103 | 0.0 | 0.0 | 0.00 | 0.30 | 0.30 | 98 | 1000.5 |
| 20260906024928 | -17 | 103 | 0.0 | 0.0 | 0.00 | 0.30 | 0.30 | 97 | 1000.4 |
| 20260906024428 | -17 | 103 | 0.0 | 0.0 | 0.00 | 0.30 | 0.30 | 97 | 1000.4 |
| 20260906023928 | -17 | 105 | 0.0 | 0.0 | 0.00 | 0.30 | 0.30 | 98 | 1000.6 |
| 20260906023427 | -17 | 95 | 0.0 | 1.6 | 0.00 | 0.30 | 0.30 | 98 | 1000.7 |
| 20260906022927 | -17 | 112 | 0.0 | 0.0 | 0.00 | 0.30 | 0.30 | 98 | 1000.4 |
| 20260906022427 | -17 | 114 | 0.0 | 0.0 | 0.00 | 0.30 | 0.30 | 98 | 1000.3 |
| 20260906021927 | -17 | 114 | 0.0 | 0.0 | 0.00 | 0.30 | 0.30 | 98 | 1000.5 |
| 20260906021427 | -17 | 113 | 0.0 | 0.0 | 0.00 | 0.30 | 0.30 | 98 | 1000.3 |
| 20260906020926 | -17 | 133 | 0.0 | 0.0 | 0.00 | 0.30 | 0.30 | 98 | 1000.2 |
| 20260906020426 | -17 | 133 | 0.0 | 0.0 | 0.00 | 0.30 | 0.30 | 98 | 1000.2 |
| 20260906015926 | -17 | 133 | 0.0 | 0.0 | 0.00 | 0.30 | 0.30 | 98 | 1000.4 |
| 20260906015426 | -17 | 133 | 0.0 | 0.0 | 0.00 | 0.30 | 0.30 | 98 | 1000.2 |
| 20260906014926 | -17 | 133 | 0.0 | 0.0 | 0.00 | 0.30 | 0.30 | 98 | 1000.5 |
| 20260906014425 | -17 | 133 | 0.0 | 0.0 | 0.00 | 0.30 | 0.30 | 98 | 1000.3 |
| 20260906013925 | -17 | 133 | 0.0 | 0.0 | 0.00 | 0.30 | 0.30 | 98 | 1000.2 |
| 20260906013425 | -17 | 133 | 0.0 | 0.0 | 0.00 | 0.30 | 0.30 | 98 | 1000.3 |
| 20260906012925 | -17 | 133 | 0.0 | 0.0 | 0.00 | 0.30 | 0.30 | 98 | 1000.4 |
| 20260906012424 | -17 | 133 | 0.0 | 0.0 | 0.00 | 0.30 | 0.30 | 98 | 1000.4 |
| 20260906011924 | -17 | 133 | 0.0 | 0.0 | 0.00 | 0.30 | 0.30 | 98 | 1000.2 |
| 20260906011424 | -17 | 133 | 0.0 | 0.0 | 0.00 | 0.30 | 0.30 | 98 | 1000.0 |
| 20260906010924 | -17 | 133 | 0.0 | 0.0 | 0.00 | 0.30 | 0.30 | 98 | 1000.1 |
| 20260906010423 | -17 | 133 | 0.0 | 0.0 | 0.00 | 0.30 | 0.30 | 98 | 1000.1 |
| 20260906005923 | -17 | 133 | 0.0 | 0.0 | 0.00 | 0.30 | 0.30 | 98 | 1000.2 |
| 20260906005423 | -17 | 133 | 0.0 | 0.0 | 0.00 | 0.30 | 0.30 | 98 | 1000.0 |
| 20260906004923 | -17 | 133 | 0.0 | 0.0 | 0.00 | 0.30 | 0.30 | 98 | 999.8 |
| 20260906004423 | -17 | 133 | 0.0 | 0.0 | 0.00 | 0.30 | 0.30 | 97 | 1000.0 |
| 20260906003922 | -17 | 133 | 0.0 | 0.0 | 0.00 | 0.30 | 0.30 | 97 | 999.7 |
| 20260906003422 | -17 | 133 | 0.0 | 0.0 | 0.00 | 0.30 | 0.30 | 97 | 999.8 |
| 20260906002922 | -17 | 133 | 0.0 | 0.0 | 0.00 | 0.30 | 0.30 | 97 | 999.9 |
| 20260906002422 | -17 | 133 | 0.0 | 0.0 | 0.00 | 0.30 | 0.30 | 97 | 999.8 |
| 20260906001921 | -17 | 133 | 0.0 | 0.0 | 0.00 | 0.30 | 0.30 | 97 | 999.6 |
| 20260906001421 | -17 | 133 | 0.0 | 0.0 | 0.00 | 0.30 | 0.30 | 97 | 999.5 |
| 20260906000921 | -17 | 133 | 0.0 | 0.0 | 0.00 | 0.30 | 0.30 | 97 | 999.5 |
| 20260906000421 | -17 | 133 | 0.0 | 0.0 | 0.00 | 0.30 | 0.30 | 97 | 999.4 |
| 20260905235921 | -17 | 133 | 0.0 | 0.0 | 0.00 | 0.30 | 0.30 | 97 | 999.4 |
| 20260905235420 | -17 | 133 | 0.0 | 0.0 | 0.00 | 0.30 | 0.30 | 97 | 999.4 |
| 20260905234920 | -17 | 133 | 0.0 | 0.0 | 0.00 | 0.30 | 0.30 | 97 | 999.2 |
| 20260905234420 | -17 | 133 | 0.0 | 0.0 | 0.00 | 0.30 | 0.30 | 97 | 999.2 |
| 20260905233920 | -17 | 133 | 0.0 | 0.0 | 0.00 | 0.30 | 0.30 | 97 | 999.2 |
| 20260905233419 | -17 | 133 | 0.0 | 0.0 | 0.00 | 0.30 | 0.30 | 97 | 999.1 |
| 20260905232919 | -17 | 133 | 0.0 | 0.0 | 0.00 | 0.30 | 0.30 | 96 | 999.0 |
| 20260905232419 | -17 | 133 | 0.0 | 0.0 | 0.00 | 0.30 | 0.30 | 96 | 999.0 |
| 20260905231919 | -17 | 133 | 0.0 | 0.0 | 0.00 | 0.30 | 0.30 | 96 | 998.7 |
| 20260905231418 | -17 | 129 | 0.0 | 0.0 | 0.00 | 0.30 | 0.30 | 96 | 998.9 |
| 20260905230918 | -17 | 129 | 0.0 | 0.0 | 0.00 | 0.30 | 0.30 | 96 | 998.7 |
| 20260905230418 | -17 | 129 | 0.0 | 0.0 | 0.00 | 0.30 | 0.30 | 96 | 998.6 |
| 20260905225918 | -17 | 129 | 0.0 | 0.0 | 0.00 | 0.30 | 0.30 | 96 | 998.5 |
| 20260905225417 | -17 | 129 | 0.0 | 0.0 | 0.00 | 0.30 | 0.30 | 95 | 998.3 |
| 20260905224917 | -17 | 128 | 0.0 | 0.0 | 0.00 | 0.30 | 0.30 | 96 | 998.5 |
| 20260905224417 | -17 | 128 | 0.0 | 0.0 | 0.00 | 0.30 | 0.30 | 96 | 998.5 |
| 20260905223917 | -17 | 129 | 0.0 | 0.0 | 0.00 | 0.30 | 0.30 | 96 | 998.4 |
| 20260905223417 | -17 | 129 | 0.0 | 0.0 | 0.00 | 0.30 | 0.30 | 96 | 998.4 |
| 20260905222916 | -17 | 128 | 0.0 | 0.0 | 0.00 | 0.30 | 0.30 | 97 | 998.6 |
| 20260905222416 | -17 | 123 | 0.0 | 0.0 | 0.00 | 0.30 | 0.30 | 97 | 998.9 |
| 20260905221916 | -17 | 134 | 0.0 | 0.0 | 0.00 | 0.30 | 0.30 | 97 | 998.8 |
| 20260905221416 | -17 | 134 | 0.0 | 0.0 | 0.00 | 0.30 | 0.30 | 97 | 998.7 |
| 20260905220915 | -17 | 134 | 0.0 | 0.0 | 0.00 | 0.30 | 0.30 | 97 | 998.8 |
| 20260905220415 | -17 | 134 | 0.0 | 0.0 | 0.00 | 0.30 | 0.30 | 97 | 999.1 |
| 20260905215915 | -17 | 134 | 0.0 | 0.0 | 0.00 | 0.30 | 0.30 | 97 | 999.0 |
| 20260905215415 | -17 | 134 | 0.0 | 0.0 | 0.00 | 0.30 | 0.30 | 97 | 999.0 |
| 20260905214915 | -17 | 134 | 0.0 | 0.0 | 0.00 | 0.30 | 0.30 | 97 | 999.0 |
| 20260905214414 | -17 | 133 | 0.0 | 0.0 | 0.00 | 0.30 | 0.30 | 97 | 998.8 |
| 20260905213914 | -17 | 133 | 0.0 | 0.0 | 0.00 | 0.30 | 0.30 | 97 | 998.6 |
| 20260905213414 | -17 | 133 | 0.0 | 0.0 | 0.00 | 0.30 | 0.30 | 97 | 998.4 |
| 20260905212914 | -17 | 133 | 0.0 | 0.0 | 0.00 | 0.30 | 0.30 | 97 | 998.4 |
| 20260905212413 | -17 | 133 | 0.0 | 0.0 | 0.00 | 0.30 | 0.30 | 97 | 998.4 |
| 20260905211913 | -17 | 133 | 0.0 | 0.0 | 0.00 | 0.30 | 0.30 | 97 | 998.4 |
| 20260905211413 | -17 | 133 | 0.0 | 0.0 | 0.00 | 0.30 | 0.30 | 97 | 998.2 |
| 20260905210913 | -17 | 133 | 0.0 | 0.0 | 0.00 | 0.30 | 0.30 | 97 | 998.4 |
| 20260905210413 | -17 | 133 | 0.0 | 0.0 | 0.00 | 0.30 | 0.30 | 97 | 998.3 |
| 20260905205912 | -17 | 133 | 0.0 | 0.0 | 0.00 | 0.30 | 0.30 | 97 | 998.3 |
| 20260905205412 | -17 | 133 | 0.0 | 0.0 | 0.00 | 0.30 | 0.30 | 97 | 998.2 |
| 20260905204912 | -17 | 133 | 0.0 | 0.0 | 0.00 | 0.30 | 0.30 | 97 | 998.4 |
| 20260905204412 | -17 | 133 | 0.0 | 0.0 | 0.00 | 0.30 | 0.30 | 96 | 998.2 |
| 20260905203911 | -17 | 133 | 0.0 | 0.0 | 0.00 | 0.30 | 0.30 | 96 | 998.0 |
| 20260905203411 | -17 | 133 | 0.0 | 0.0 | 0.00 | 0.30 | 0.30 | 96 | 998.1 |
| 20260905202911 | -17 | 133 | 0.0 | 0.0 | 0.00 | 0.30 | 0.30 | 97 | 998.2 |
| 20260905202411 | -17 | 133 | 0.0 | 0.0 | 0.00 | 0.30 | 0.30 | 96 | 998.0 |
| 20260905201910 | -17 | 133 | 0.0 | 0.0 | 0.00 | 0.30 | 0.30 | 96 | 998.3 |
| 20260905201410 | -17 | 133 | 0.0 | 0.0 | 0.18 | 0.30 | 0.30 | 96 | 998.2 |
| 20260905200910 | -17 | 134 | 0.0 | 0.0 | 0.18 | 0.30 | 0.30 | 96 | 998.3 |
| 20260905200410 | -17 | 118 | 0.0 | 0.0 | 0.18 | 0.28 | 0.28 | 95 | 998.8 |
| 20260905195909 | -17 | 167 | 0.0 | 0.0 | 0.79 | 0.28 | 0.28 | 94 | 998.8 |
| 20260905195409 | -17 | 37 | 0.0 | 1.6 | 1.37 | 0.28 | 0.28 | 93 | 999.4 |
| 20260905194909 | -17 | 158 | 0.0 | 0.0 | 1.07 | 0.18 | 0.18 | 88 | 999.6 |
| 20260905194409 | -17 | 140 | 0.0 | 0.0 | 0.18 | 0.03 | 0.03 | 75 | 999.8 |
| 20260905193909 | -17 | 256 | 1.6 | 3.2 | 0.00 | 0.00 | 0.00 | 69 | 1000.0 |
| 20260905193408 | -17 | 148 | 3.2 | 3.2 | 0.00 | 0.00 | 0.00 | 69 | 999.5 |
| 20260905192908 | -17 | 124 | 0.0 | 0.0 | 0.00 | 0.00 | 0.00 | 69 | 999.4 |
| 20260905192408 | -17 | 159 | 0.0 | 0.0 | 0.00 | 0.00 | 0.00 | 69 | 999.2 |
| 20260905191908 | -17 | 216 | 0.0 | 1.6 | 0.00 | 0.00 | 0.00 | 69 | 999.1 |
| 20260905191407 | -17 | 118 | 3.2 | 4.8 | 0.00 | 0.00 | 0.00 | 67 | 998.8 |
| 20260905190907 | -17 | 32 | 3.2 | 4.8 | 0.00 | 0.00 | 0.00 | 63 | 999.1 |
| 20260905190407 | -17 | 176 | 1.6 | 3.2 | 0.00 | 0.00 | 0.00 | 56 | 998.9 |
| 20260905185907 | -17 | 201 | 0.0 | 0.0 | 0.00 | 0.00 | 0.00 | 53 | 998.2 |
| 20260905185406 | -17 | 123 | 0.0 | 0.0 | 0.00 | 0.00 | 0.00 | 54 | 998.2 |
| 20260905184906 | -17 | 149 | 0.0 | 0.0 | 0.00 | 0.00 | 0.00 | 53 | 997.8 |
| 20260905184406 | -17 | 151 | 0.0 | 0.0 | 0.00 | 0.00 | 0.00 | 50 | 997.7 |
| 20260905183905 | -17 | 188 | 0.0 | 0.0 | 0.00 | 0.00 | 0.00 | 48 | 997.9 |
| 20260905183405 | -17 | 185 | 0.0 | 1.6 | 0.00 | 0.00 | 0.00 | 49 | 998.0 |
| 20260905182905 | -17 | 99 | 0.0 | 0.0 | 0.00 | 0.00 | 0.00 | 47 | 998.1 |
| 20260905182405 | -17 | 165 | 0.0 | 0.0 | 0.00 | 0.00 | 0.00 | 49 | 997.9 |
| 20260905181904 | -17 | 156 | 0.0 | 0.0 | 0.00 | 0.00 | 0.00 | 49 | 997.9 |
| 20260905181404 | -17 | 93 | 0.0 | 1.6 | 0.00 | 0.00 | 0.00 | 49 | 998.2 |
| 20260905180904 | -17 | 182 | 0.0 | 1.6 | 0.00 | 0.00 | 0.00 | 50 | 998.5 |
| 20260905180404 | -17 | 205 | 0.0 | 1.6 | 0.00 | 0.00 | 0.00 | 50 | 998.5 |
| 20260905175904 | -17 | 149 | 0.0 | 0.0 | 0.00 | 0.00 | 0.00 | 50 | 998.5 |
| 20260905174903 | -17 | 249 | 1.6 | 1.6 | 0.00 | 0.00 | 0.00 | 49 | 998.8 |
| 20260905173903 | -17 | 95 | 1.6 | 1.6 | 0.00 | 0.00 | 0.00 | 52 | 999.1 |
| 20260905173402 | -17 | 215 | 0.0 | 0.0 | 0.00 | 0.00 | 0.00 | 50 | 999.2 |
| 20260905172902 | -17 | 137 | 0.0 | 0.0 | 0.00 | 0.00 | 0.00 | 52 | 999.6 |
| 20260905172402 | -17 | 147 | 0.0 | 0.0 | 0.00 | 0.00 | 0.00 | 52 | 999.7 |
| 20260905171902 | -17 | 174 | 0.0 | 0.0 | 0.00 | 0.00 | 0.00 | 53 | 999.6 |
| 20260905171401 | -17 | 146 | 1.6 | 3.2 | 0.00 | 0.00 | 0.00 | 52 | 999.4 |
| 20260905170901 | -17 | 334 | 1.6 | 3.2 | 0.00 | 0.00 | 0.00 | 53 | 999.6 |
| 20260905170401 | -17 | 98 | 3.2 | 3.2 | 0.00 | 0.00 | 0.00 | 54 | 999.9 |
| 20260905165901 | -17 | 43 | 1.6 | 1.6 | 0.00 | 0.00 | 0.00 | 53 | 999.8 |
| 20260905165400 | -17 | 288 | 3.2 | 3.2 | 0.00 | 0.00 | 0.00 | 52 | 999.7 |
| 20260905164900 | -17 | 4 | 1.6 | 1.6 | 0.00 | 0.00 | 0.00 | 54 | 1000.1 |
| 20260905164400 | -17 | 13 | 1.6 | 1.6 | 0.00 | 0.00 | 0.00 | 54 | 1000.1 |
| 20260905163345 | -17 | 329 | 3.2 | 4.8 | 0.00 | 0.00 | 0.00 | 53 | 1000.2 |
| 20260905162844 | -17 | 19 | 0.0 | 1.6 | 0.00 | 0.00 | 0.00 | 53 | 1000.3 |
| 20260905162344 | -17 | 13 | 3.2 | 4.8 | 0.00 | 0.00 | 0.00 | 55 | 1000.4 |
| 20260905161844 | -17 | 10 | 1.6 | 3.2 | 0.00 | 0.00 | 0.00 | 54 | 1000.2 |
| 20260905161344 | -17 | 137 | 0.0 | 0.0 | 0.00 | 0.00 | 0.00 | 58 | 1000.4 |
| 20260905160843 | -17 | 191 | 0.0 | 0.0 | 0.00 | 0.00 | 0.00 | 57 | 1000.5 |
| 20260905160343 | -17 | 191 | 0.0 | 0.0 | 0.00 | 0.00 | 0.00 | 58 | 1000.6 |
| 20260905155843 | -17 | 121 | 0.0 | 0.0 | 0.00 | 0.00 | 0.00 | 59 | 1000.6 |
| 20260905155343 | -17 | 213 | 0.0 | 1.6 | 0.00 | 0.00 | 0.00 | 57 | 1000.7 |
| 20260905154842 | -17 | 182 | 0.0 | 0.0 | 0.00 | 0.00 | 0.00 | 59 | 1000.8 |
| 20260905154342 | -17 | 136 | 0.0 | 0.0 | 0.00 | 0.00 | 0.00 | 60 | 1000.9 |
| 20260905153842 | -17 | 351 | 6.4 | 6.4 | 0.00 | 0.00 | 0.00 | 58 | 1000.9 |
| 20260905153342 | -17 | 310 | 1.6 | 3.2 | 0.00 | 0.00 | 0.00 | 58 | 1001.0 |
| 20260905152842 | -17 | 40 | 4.8 | 9.7 | 0.00 | 0.00 | 0.00 | 58 | 1001.1 |
| 20260905152341 | -17 | 31 | 1.6 | 1.6 | 0.00 | 0.00 | 0.00 | 61 | 1001.2 |
| 20260905151841 | -17 | 100 | 0.0 | 1.6 | 0.00 | 0.00 | 0.00 | 63 | 1001.3 |
| 20260905151341 | -17 | 30 | 0.0 | 1.6 | 0.00 | 0.00 | 0.00 | 62 | 1001.3 |
| 20260905150840 | -17 | 183 | 0.0 | 1.6 | 0.00 | 0.00 | 0.00 | 63 | 1001.2 |
| 20260905150340 | -17 | 192 | 0.0 | 0.0 | 0.00 | 0.00 | 0.00 | 64 | 1001.2 |
| 20260905145840 | -17 | 175 | 0.0 | 0.0 | 0.00 | 0.00 | 0.00 | 65 | 1001.1 |
| 20260905145340 | -17 | 112 | 0.0 | 0.0 | 0.00 | 0.00 | 0.00 | 65 | 1001.1 |
| 20260905144840 | -17 | 321 | 0.0 | 0.0 | 0.00 | 0.00 | 0.00 | 65 | 1001.4 |
| 20260905144339 | -17 | 157 | 0.0 | 0.0 | 0.00 | 0.00 | 0.00 | 69 | 1001.2 |
| 20260905143839 | -17 | 192 | 0.0 | 0.0 | 0.00 | 0.00 | 0.00 | 69 | 1001.2 |
| 20260905143339 | -17 | 193 | 0.0 | 0.0 | 0.00 | 0.00 | 0.00 | 71 | 1001.3 |
| 20260905142839 | -17 | 198 | 0.0 | 0.0 | 0.00 | 0.00 | 0.00 | 71 | 1001.0 |
| 20260905142338 | -17 | 202 | 0.0 | 1.6 | 0.00 | 0.00 | 0.00 | 71 | 1001.0 |
| 20260905141838 | -17 | 189 | 0.0 | 0.0 | 0.00 | 0.00 | 0.00 | 72 | 1001.0 |
| 20260905141338 | -17 | 206 | 0.0 | 0.0 | 0.00 | 0.00 | 0.00 | 74 | 1000.9 |
| 20260905140838 | -17 | 145 | 0.0 | 0.0 | 0.00 | 0.00 | 0.00 | 74 | 1001.1 |
| 20260905140338 | -17 | 122 | 0.0 | 0.0 | 0.00 | 0.00 | 0.00 | 75 | 1000.9 |